Terug naar catalogus

COSMOS 2491 DEB

ActiefPO
NORAD 57554·DEBRIS·🇷🇺 Russia

Gelanceerd Dec 25, 2013 vanaf Plesetsk Cosmodrome

Loading…

Volgende Passages (komende 24 uur)

TLE

VerouderendSource: Space-Track

Epoch: Sep 6, 2026, 07:29 UTC

1 57554U 13076AR  26249.31224050  .00000604  00000-0  38950-2 0  9990
2 57554  82.4812 106.2697 0025311  29.3905 330.8596 12.50203180151692

Volg COSMOS 2491 DEB in realtime met AllMySat

Download on the App Store